Location: Wildcat Hills Observatory
(41.6350°N, 103.6812°W)
Time: 16:32:42
(UTC-06:00)

Cosmos 1634 Rocket - Visible Passes

Search period start: 23 May 2017 00:00
Search period end: 02 June 2017 00:00
Orbit: 960 x 992 km, 82.9° (Epoch: 22 May)

Date Brightness Start Highest point End Pass type
(mag) Time Alt. Az. Time Alt. Az. Time Alt. Az.
23 May 5.7 03:44:24 10° N 03:49:56 33° ENE 03:55:25 10° SE visible
24 May 4.6 04:09:34 10° N 04:15:42 59° E 04:21:46 10° SSE visible
25 May 6.5 02:51:27 10° NNE 02:55:09 16° ENE 02:58:48 10° ESE visible
25 May 4.0 04:35:04 10° N 04:41:17 78° W 04:47:26 10° S visible
26 May 5.8 03:15:52 10° NNE 03:21:10 29° ENE 03:26:24 10° SE visible
27 May 4.8 03:40:57 10° N 03:46:58 51° ENE 03:52:56 10° SSE visible
28 May 6.5 02:23:17 10° NE 02:26:18 14° ENE 02:29:18 10° E visible
28 May 4.0 04:06:22 10° N 04:12:36 89° W 04:18:45 10° S visible
29 May 6.0 02:47:23 10° NNE 02:52:23 25° ENE 02:57:19 10° SE visible
29 May 4.2 04:32:07 10° NNW 04:38:03 50° W 04:43:56 10° SSW visible
30 May 5.0 03:12:20 10° N 03:18:14 44° ENE 03:24:04 10° SSE visible
31 May 6.6 01:55:23 10° NE 01:57:27 12° ENE 01:59:30 10° E visible
31 May 4.1 03:37:40 10° N 03:43:54 79° E 03:50:04 10° S visible
01 Jun 6.1 02:18:56 10° NNE 02:23:34 22° ENE 02:28:10 10° ESE visible
01 Jun 4.1 04:03:20 10° NNW 04:09:24 58° W 04:15:23 10° S visible
